Notices

What's New in latest Release from April 7th, 2021:

- Updated Glossary, including Speed of Maximum Gust, and Total Hourly Precipitation

- Updated national and regional climate services offices contacts and prices information

- Addition of station inventory lists for 1981-2010, 1971-2000, and 1961-1990 Normals.

If you haven't already, please take our survey and provide feedback about our website: https://eccc.sondage-survey.ca/f/LanguageSelection.aspx?s=442ca660-fcf1-47c0-95a9-59707d6fd709

Hourly Data Report for November 29, 2019

QUALICUM BEACH AIRPORT
BRITISH COLUMBIA
Current Station Operator: ECCC - MSC

49°20'14.000" N
124°23'38.000" W
58.20 m
1026562
71766
VOQ

Download Data

Hourly Data (November 2019)
Hourly Data Report for November 29, 2019
TIME
LST
Temp Definition
°C
Dew Point Definition
°C
Rel Hum Definition
%
Precip. Amount Definition
mm

Wind Dir Definition
10's deg

Wind Spd Definition
km/h
Visibility Definition
km
Stn Press Definition
kPa
Hmdx Definition


Wind Chill Definition


Weather Definition


00:00 -4.4 -5.8 90 LegendMM   0   100.76     LegendNANA
01:00 -5.1 -6.1 92 LegendMM 22 1   100.75   -6 LegendNANA
02:00 -5.1 -6.1 93 LegendMM 24 1   100.74   -6 LegendNANA
03:00 -4.8 -5.9 92 LegendMM 24 2   100.71   -6 LegendNANA
04:00 -4.5 -5.8 91 LegendMM 25 3   100.70   -6 LegendNANA
05:00 -3.9 -5.6 88 LegendMM 27 7   100.66   -7 LegendNANA
06:00 -2.9 -5.9 80 LegendMM 27 7   100.66   -6 LegendNANA
07:00 -3.3 -6.0 82 LegendMM 27 6   100.64   -6 LegendNANA
08:00 -3.9 -5.8 87 LegendMM 25 5   100.65   -6 LegendNANA
09:00 -2.7 -5.4 82 LegendMM 24 5   100.65   -5 LegendNANA
10:00 0.0 -4.5 72 LegendMM 23 3   100.65   -1 LegendNANA
11:00 2.7 -5.6 55 LegendMM 31 5   100.62     LegendNANA
12:00 2.9 -4.7 57 LegendMM 30 9   100.57     LegendNANA
13:00 3.3 -3.5 61 LegendMM 29 5   100.52     LegendNANA
14:00 3.8 -3.6 59 LegendMM 32 6   100.48     LegendNANA
15:00 4.1 -3.7 57 LegendMM 31 3   100.48     LegendNANA
16:00 0.3 -4.1 72 LegendMM 29 2   100.49     LegendNANA
17:00 -2.2 -4.1 87 LegendMM 23 2   100.53   -3 LegendNANA
18:00 -2.2 -4.5 84 LegendMM 29 3   100.56   -3 LegendNANA
19:00 -3.3 -4.8 89 LegendMM 0 1   100.61   -4 LegendNANA
20:00 -4.0 -5.3 91 LegendMM   0   100.67     LegendNANA
21:00 -4.3 -5.5 91 LegendMM   0   100.71     LegendNANA
22:00 -4.3 -5.5 91 LegendMM 25 1   100.73   -5 LegendNANA
23:00 -5.2 -6.2 92 LegendMM   0   100.78     LegendNANA

Notes on Data Quality.

Legend

  • E = Estimated
  • M = Missing
  • NA = Not Available*
  • [empty] = Indicates an unobserved value
Date modified: